EW3708 Weather Reports


time (UTC)temp
C
wind
direction
speed
KPH
gust
KPH
rain 1hr
cm
rain 24hr
cm
rain mn
cm
humidity
%
barometer
mb
20260905100029 15 252 0.0 0.0 0.00 0.00 0.00 91 1009.6
20260905094525 16 252 0.0 0.0 0.00 0.00 0.00 91 1009.4
20260905093029 16 252 0.0 0.0 0.00 0.00 0.00 91 1009.4
20260905091523 16 252 0.0 1.6 0.00 0.00 0.00 91 1009.3
20260905090022 16 252 0.0 0.0 0.00 0.00 0.00 91 1009.3
20260905084519 16 252 0.0 0.0 0.00 0.00 0.00 90 1009.4
20260905083018 16 252 0.0 0.0 0.00 0.00 0.00 91 1009.4
20260905081517 17 252 0.0 0.0 0.00 0.00 0.00 91 1009.6
20260905080021 17 252 0.0 0.0 0.00 0.00 0.00 91 1009.7
20260905074517 17 252 0.0 0.0 0.00 0.00 0.00 91 1009.8
20260905073012 17 252 0.0 0.0 0.00 0.00 0.00 91 1009.7
20260905071511 17 252 0.0 0.0 0.00 0.00 0.00 90 1009.8
20260905070008 17 252 0.0 0.0 0.00 0.00 0.00 91 1009.9
20260905064507 17 252 0.0 0.0 0.00 0.00 0.00 91 1009.9
20260905063005 17 252 0.0 0.0 0.00 0.00 0.00 91 1010.0
20260905061502 17 252 0.0 0.0 0.00 0.00 0.00 91 1010.2
20260905060006 17 252 0.0 0.0 0.00 0.00 0.00 91 1010.2
20260905054604 17 252 0.0 0.0 0.00 0.00 0.00 90 1010.4
20260905053059 18 252 0.0 0.0 0.00 0.00 0.00 90 1010.6
20260905051609 18 252 0.0 0.0 0.00 0.00 0.00 91 1010.7
20260905050105 18 252 0.0 0.0 0.00 0.00 0.00 91 1011.0
20260905044558 18 252 0.0 0.0 0.00 0.08 0.00 90 1011.0
20260905043052 18 252 0.0 0.0 0.00 0.08 0.00 90 1010.9
20260905041552 18 252 0.0 0.0 0.00 0.08 0.00 90 1011.0
20260905040055 18 252 0.0 0.0 0.00 0.08 0.00 90 1010.9
20260905034605 18 252 0.0 1.6 0.00 0.15 0.08 90 1010.8
20260905033102 18 252 0.0 0.0 0.00 0.15 0.08 89 1010.5
20260905031548 18 252 0.0 1.6 0.00 0.15 0.08 89 1010.7
20260905030047 18 252 0.0 0.0 0.00 0.15 0.08 89 1010.8
20260905024550 18 252 0.0 0.0 0.00 0.15 0.08 89 1010.7
20260905023120 18 252 0.0 0.0 0.00 0.15 0.08 89 1010.8
20260905021545 18 252 0.0 0.0 0.00 0.15 0.08 88 1010.8
20260905020044 18 252 0.0 0.0 0.00 0.15 0.08 87 1010.8
20260905014541 18 252 0.0 1.6 0.00 0.53 0.08 86 1010.8
20260905013040 18 252 0.0 1.6 0.00 0.53 0.08 85 1010.7
20260905011546 19 252 0.0 0.0 0.00 0.53 0.08 84 1010.8
20260905010042 19 252 0.0 0.0 0.00 0.53 0.08 85 1010.7
20260905004536 20 252 0.0 0.0 0.00 0.53 0.08 84 1010.9
20260905003036 20 252 0.0 0.0 0.00 0.53 0.08 85 1010.6
20260905001536 20 252 0.0 0.0 0.00 0.53 0.08 84 1010.5
20260905000035 20 252 0.0 1.6 0.00 0.53 0.08 82 1010.3
20260904234536 20 252 0.0 0.0 0.00 0.53 0.08 81 1010.4
20260904233034 21 252 0.0 0.0 0.00 0.53 0.08 79 1010.3
20260904231535 21 252 0.0 0.0 0.00 0.53 0.08 79 1010.1
20260904230033 21 252 0.0 0.0 0.00 0.53 0.08 78 1009.9
20260904224532 22 252 0.0 1.6 0.00 0.53 0.08 75 1010.0
20260904223034 22 252 0.0 1.6 0.00 0.53 0.08 74 1010.2
20260904221531 22 252 0.0 3.2 0.00 0.53 0.08 74 1010.5
20260904220058 22 252 0.0 3.2 0.00 0.53 0.08 72 1010.6
20260904214530 23 252 0.0 3.2 0.00 0.53 0.08 72 1010.8
20260904213034 23 251 0.0 4.8 0.00 0.53 0.08 73 1010.6
20260904211529 23 214 0.0 4.8 0.00 0.53 0.08 71 1010.1
20260904210035 23 209 0.0 3.2 0.00 0.53 0.08 75 1010.1
20260904204527 23 282 0.0 0.0 0.00 0.53 0.08 72 1010.1
20260904203035 23 282 0.0 4.8 0.00 0.53 0.08 72 1010.2
20260904201526 24 282 1.6 8.0 0.00 0.53 0.08 69 1010.3
20260904200034 24 188 1.6 4.8 0.00 0.53 0.08 69 1010.6
20260904194543 24 226 1.6 6.4 0.00 0.53 0.08 66 1010.9
20260904193023 25 304 1.6 6.4 0.00 0.53 0.08 68 1010.9
20260904191535 25 302 1.6 6.4 0.00 0.53 0.08 67 1010.9
20260904190021 25 310 3.2 6.4 0.00 0.53 0.08 65 1011.0
20260904184519 25 310 1.6 6.4 0.00 0.53 0.08 67 1011.1
20260904183016 25 261 1.6 6.4 0.00 0.53 0.08 70 1011.4
20260904181515 24 269 1.6 4.8 0.00 0.53 0.08 73 1011.4
20260904180013 24 286 3.2 6.4 0.00 0.53 0.08 71 1011.4
20260904174521 24 319 1.6 4.8 0.00 0.53 0.08 68 1011.4
20260904173012 24 167 1.6 4.8 0.00 0.53 0.08 73 1011.4
20260904171511 23 289 0.0 6.4 0.00 0.53 0.08 72 1011.4
20260904170010 24 329 3.2 6.4 0.00 0.53 0.08 73 1011.5
20260904164508 23 306 1.6 4.8 0.00 0.53 0.08 76 1011.5
20260904163007 23 360 1.6 4.8 0.00 0.53 0.08 75 1011.6
20260904161506 23 273 1.6 4.8 0.00 0.53 0.08 77 1011.6
20260904160007 23 319 1.6 6.4 0.00 0.53 0.08 75 1011.7
20260904154503 23 295 3.2 6.4 0.00 0.53 0.08 76 1011.7
20260904153115 22 310 1.6 6.4 0.00 0.53 0.08 83 1011.7
20260904151600 21 292 3.2 8.0 0.00 0.53 0.08 84 1011.6
20260904150054 21 301 0.0 6.4 0.00 0.53 0.08 87 1011.9
20260904144513 21 300 0.0 4.8 0.00 0.53 0.08 91 1011.8
20260904143041 20 304 1.6 4.8 0.00 0.53 0.08 91 1011.9
20260904141538 20 310 1.6 8.0 0.00 0.53 0.08 92 1011.9
20260904140042 20 296 1.6 6.4 0.00 0.53 0.08 94 1011.8
20260904134544 20 240 0.0 3.2 0.00 0.53 0.08 95 1011.6
20260904133037 20 237 1.6 4.8 0.00 0.53 0.08 94 1011.5
20260904131536 20 236 0.0 3.2 0.00 0.53 0.08 95 1011.3
20260904130036 20 226 1.6 4.8 0.00 0.53 0.08 95 1011.6
20260904124540 20 226 0.0 3.2 0.00 0.53 0.08 95 1011.8
20260904123043 20 157 0.0 3.2 0.00 0.53 0.08 95 1011.7
20260904121533 20 131 0.0 3.2 0.00 0.53 0.08 95 1011.8
20260904120031 20 131 0.0 1.6 0.00 0.53 0.08 95 1011.8
20260904114530 20 131 0.0 3.2 0.00 0.53 0.08 95 1011.9
20260904113029 20 88 0.0 1.6 0.00 0.53 0.08 95 1011.7
20260904111528 20 88 0.0 1.6 0.00 0.53 0.08 95 1011.2
20260904110037 20 88 0.0 1.6 0.00 0.53 0.08 95 1011.3
20260904104527 20 88 0.0 1.6 0.00 0.56 0.08 95 1011.0
20260904103026 20 88 0.0 1.6 0.00 0.56 0.08 95 1011.0
20260904101525 20 88 0.0 0.0 0.00 0.56 0.08 95 1011.0